Regional Weather Roundup
Issued by NWS

Home | Current Version | Previous Version | Text Only | Print | Product List | Glossary On
Versions: 1 2 3 4 5 6 7 8 9 10 11 12 13 14 15 16 17 18 19 20 21 22 23 24 25 26 27 28 29 30 31 32 33 34 35 36 37 38 39 40 41 42 43 44 45 46 47 48 49 50
000
ASUS43 KDMX 271407
RWRIA

WEATHER ROUNDUP FOR IOWA
NATIONAL WEATHER SERVICE DES MOINES IA
900 AM CDT FRI MAR 27 2015

NOTE: "FAIR" INDICATES FEW OR NO CLOUDS BELOW 12,000 FEET WITH NO
SIGNIFICANT WEATHER AND/OR OBSTRUCTIONS TO VISIBILITY.

* - THESE STATIONS ARE NOT NWS STATIONS...THUS NOT UNDER NWS
QUALITY CONTROL.  THEY ALSO DO NOT REPORT WEATHER SUCH
AS PRECIPITATION OR FOG.

IAZ001>003-012>014-020>022-031>034-043>046-271500-
   NORTHWEST IOWA

CITY           SKY/WX    TMP DP  RH WIND       PRES   REMARKS
CARROLL *      SUNNY     25  18  74 N9        30.28R WCI  15
CHEROKEE *     SUNNY     23  16  74 N3        30.28F
DENISON *      SUNNY     23  18  80 NW3       30.27S
LE MARS *      SUNNY     23  16  74 N3        30.30S
ORANGE CITY *  SUNNY     23  12  63 NE5       30.26F WCI  17
SHELDON *      SUNNY     21  14  73 NE5       30.25F WCI  15
SIOUX CITY     SUNNY     25  15  66 N7        30.30F WCI  17
STORM LAKE *   SUNNY     23  14  68 N8        30.27S WCI  14
$$

IAZ055>058-069>071-079>083-090>094-271500-
   SOUTHWEST IOWA

CITY           SKY/WX    TMP DP  RH WIND       PRES   REMARKS
ATLANTIC *     SUNNY     25  19  80 N7        30.29R WCI  17
AUDUBON *      SUNNY     25  19  80 N5        30.27R WCI  19
CLARINDA *     SUNNY     28  23  80 N9        30.31R WCI  20
COUNCIL BLFS * SUNNY     27  21  80 N6        30.29S WCI  20
CRESTON *      SUNNY     27  21  80 N8        30.26R WCI  18
HARLAN  *      SUNNY     25  21  86 N9        30.32S WCI  15
LAMONI         SUNNY     29  20  69 N14       30.25R WCI  18
RED OAK *      SUNNY     27  21  80 N10       30.30R WCI  17
SHENANDOAH *   SUNNY     28  21  74 N8        30.31S WCI  20
$$

IAZ047>049-059>061-072>074-084-271500-
   CENTRAL IOWA

CITY           SKY/WX    TMP DP  RH WIND       PRES   REMARKS
AMES           SUNNY     28  17  63 NE6       30.26R WCI  22
ANKENY *       SUNNY     28  19  69 N8        30.27R WCI  20
CHARITON *     SUNNY     28  19  69 N12       30.24S WCI  18
DES MOINES     SUNNY     29  17  61 N9        30.27R WCI  20
GRINNELL*      SUNNY     28  19  69 NE12      30.25R WCI  18
KNOXVILLE *    SUNNY     28  18  64 N7        30.23S WCI  21
MARSHALLTOWN   SUNNY     26  16  65 NE12      30.25R WCI  16
PELLA *          N/A     30  21  69 N10       30.26S WCI  21
PERRY *          N/A     28  21  74 N8        30.27S WCI  20
$$

IAZ004>006-015-016-023>025-035-036-271500-
   NORTH CENTRAL IOWA

CITY           SKY/WX    TMP DP  RH WIND       PRES   REMARKS
ALGONA *       SUNNY     23  18  80 NE7       30.27R WCI  15
CLARION *      SUNNY     25  16  68 NE9       30.25S WCI  15
ESTHERVILLE    SUNNY     22  13  68 N7        30.26R WCI  13
FORT DODGE *   SUNNY     25  16  68 N5        30.27S WCI  19
MASON CITY     SUNNY     25  14  63 NE9       30.26S WCI  15
FOREST CITY *  SUNNY     25  16  68 NE6       30.25S WCI  18
IOWA FALLS *     N/A     27  14  59 NE8       30.26S WCI  18
$$

IAZ007>011-017>019-026>030-037>042-050>054-066-271500-
   NORTHEAST IOWA

CITY           SKY/WX    TMP DP  RH WIND       PRES   REMARKS
CEDAR RAPIDS   SUNNY     26   8  46 NE15      30.23R WCI  14
CHARLES CITY * SUNNY     23  14  68 NE6       30.26S WCI  16
CLINTON *      SUNNY     25  10  54 N16       30.25R WCI  12
DECORAH *      SUNNY     21   9  58 NW5       30.24R WCI  15
DUBUQUE        SUNNY     23   4  44 NE14      30.21R WCI  11
MONTICELLO *   SUNNY     25   7  46 NE13G18   30.24R WCI  13
OELWEIN *      SUNNY     25  10  54 NE8       30.25R WCI  16
WATERLOO       SUNNY     26  12  55 NE9       30.26R WCI  17
$$

IAZ064-065-067-068-078-271500-
   EAST CENTRAL IOWA

CITY           SKY/WX    TMP DP  RH WIND       PRES   REMARKS
DAVENPORT      SUNNY     26  10  50 N20       30.23R WCI  12
IOWA CITY      SUNNY     28   9  44 NE14G23   30.25R WCI  17
MT. PLEASANT * MOSUNNY   30  19  64 N16       30.22R WCI  19
MUSCATINE *    MOSUNNY   28  10  47 NE18      30.24R WCI  16
QUAD CITIES    SUNNY     27   9  46 N13       30.22R WCI  16
$$

IAZ062-063-075>077-085>089-095>099-271500-
   SOUTHEAST IOWA

CITY           SKY/WX    TMP DP  RH WIND       PRES   REMARKS
BURLINGTON     MOSUNNY   32  22  66 NE14      30.20R WCI  22
FAIRFIELD *    SUNNY     30  21  69 N15       30.23R WCI  19
FORT MADISON * SUNNY     32  23  69 N9        30.21R WCI  24
KEOKUK *       CLOUDY    34  21  60 N10       30.20R WCI  26
OSKALOOSA *      N/A     28  19  69 N13       30.24R WCI  18
CENTERVILLE *  SUNNY     30  19  64 N10       30.24R WCI  21
OTTUMWA        SUNNY     30  20  66 N14       30.23R WCI  19
WASHINGTON *   SUNNY     28  10  47 NE18G24   30.23R WCI  16
$$

ABBREVIATIONS USED IN REMARKS
   TC - TEMPERATURES IN CELSIUS
  WCI - WIND CHILL INDEX
   HX - HEAT INDEX
  VSB - VISIBILITY
$$



USA.gov is the U.S. government's official web portal to all federal, state and local government web resources and services.